Location: *
(49.1466°N, 1.6216°E)
Time: 18:12:55
(UTC+00:00)

Resurs 01 Rocket - Pass Details

Date: 25 September 2023
Orbit: 631 x 641 km, 97.8° (Epoch: 10 December)

Event Time Altitude Azimuth Distance (km) Brightness Sun altitude
Exits shadow 18:46:59 15° 99° (E) 1,731 3.2 -10.8°
Maximum altitude 18:49:13 21° 62° (ENE) 1,434 3.0 -11.1°
Drops below altitude 10° 18:52:34 10° 13° (NNE) 2,048 4.2 -11.7°
Sets 18:55:12 0° 358° (N) 2,963 5.2 -12.1°
